Weather History for Owensboro, KY

Change the Weather History Date:

Wednesday, November 21, 2012

  Actual Average Record
Temperature  
Mean Temperature 52 °F -  
Max Temperature 63 °F 54 °F 77 °F (1942)
Min Temperature 41 °F 35 °F 15 °F (1937)
Degree Days  
Heating Degree Days 13    
Growing Degree Days 2 (Base 50)    
Moisture  
Dew Point 43 °F    
Average Humidity 78    
Maximum Humidity 93    
Minimum Humidity 50    
Precipitation  
Precipitation 0.00 in - - ()
Sea Level Pressure  
Sea Level Pressure 30.21 in    
Wind  
Wind Speed 3 mph (NNW)    
Max Wind Speed 8 mph    
Max Gust Speed -    
Visibility 7 miles    
Events      
Averages and records for this station are not official NWS values.
T = Trace of Precipitation, MM = Missing Value Source: NWS Daily Summary

Daily Weather History Graph

Daily Weather History Graph

Search for Another Location

Airport:

Trip Planner

Search our weather history database for the weather conditions in past years. The results will help you decide how hot, cold, wet, or windy it might be!

Date:

Astronomy

Nov. 21, 2012 Rise Set
Actual Time 6:35 AM CST 4:33 PM CST
Civil Twilight 6:07 AM CST 5:01 PM CST
Nautical Twilight 5:35 AM CST 5:33 PM CST
Astronomical Twilight 5:03 AM CST 6:05 PM CST
Moon 12:43 PM CST (11/21) 12:01 AM CST (11/21)
Length of Visible Light 10h 54m
Length of Day
9h 57m
First Quarter, 62% of the Moon is Illuminated
Nov 21
First Quarter
Nov 28
Full
Dec 6
Last Quarter
Dec 13
New
Dec 19
First Quarter

Hourly Weather History & Observations

Time (CST) Temp. Windchill Dew Point Humidity Pressure Visibility Wind Dir Wind Speed Gust Speed Precip Events Conditions
12:56 AM 45.9 °F 43.6 °F 43.0 °F 90% 30.15 in 9.0 mi NNW 4.6 mph - N/A   Clear
1:56 AM 45.9 °F 44.6 °F 43.0 °F 90% 30.16 in 9.0 mi NNW 3.5 mph - N/A   Clear
2:56 AM 45.9 °F 44.6 °F 43.0 °F 90% 30.17 in 8.0 mi NNW 3.5 mph - N/A   Clear
3:56 AM 43.9 °F 42.3 °F 41.9 °F 93% 30.18 in 7.0 mi NW 3.5 mph - N/A   Clear
4:56 AM 43.9 °F 42.3 °F 41.9 °F 93% 30.21 in 6.0 mi NNW 3.5 mph - N/A   Clear
5:56 AM 43.0 °F - 41.0 °F 93% 30.22 in 6.0 mi Calm Calm - N/A   Clear
6:56 AM 41.9 °F 40.0 °F 39.9 °F 93% 30.24 in 3.0 mi NNW 3.5 mph - N/A   Clear
7:56 AM 46.9 °F - 43.9 °F 89% 30.25 in 5.0 mi Calm Calm - N/A   Clear
8:56 AM 52.9 °F - 46.9 °F 80% 30.25 in 6.0 mi Calm Calm - N/A   Haze
9:56 AM 56.8 °F - 45.9 °F 67% 30.26 in 6.0 mi NE 6.9 mph - N/A   Haze
10:56 AM 59.9 °F - 45.9 °F 60% 30.25 in 7.0 mi NNE 8.1 mph - N/A   Clear
11:56 AM 61.9 °F - 45.9 °F 56% 30.24 in 8.0 mi Variable 4.6 mph - N/A   Clear
12:56 PM 61.9 °F - 45.0 °F 54% 30.22 in 7.0 mi NNW 4.6 mph - N/A   Clear
2:56 PM 63.0 °F - 43.9 °F 50% 30.21 in 8.0 mi Calm Calm - N/A   Clear
3:56 PM 63.0 °F - 43.9 °F 50% 30.21 in 7.0 mi Calm Calm - N/A   Clear
4:56 PM 56.8 °F - 43.9 °F 62% 30.21 in 7.0 mi Calm Calm - N/A   Clear
5:56 PM 55.9 °F - 43.9 °F 64% 30.21 in 8.0 mi Calm Calm - N/A   Clear
6:56 PM 48.9 °F - 43.0 °F 80% 30.22 in 8.0 mi Calm Calm - N/A   Clear
7:56 PM 45.9 °F - 41.9 °F 86% 30.22 in 8.0 mi Calm Calm - N/A   Clear
8:56 PM 45.0 °F - 41.0 °F 86% 30.21 in 8.0 mi Calm Calm - N/A   Clear
9:56 PM 43.9 °F - 41.0 °F 90% 30.21 in 6.0 mi Calm Calm - N/A   Clear
10:56 PM 43.0 °F - 39.9 °F 89% 30.22 in 7.0 mi Calm Calm - N/A   Clear
11:56 PM 41.0 °F - 38.8 °F 92% 30.22 in 5.0 mi Calm Calm - N/A   Clear